Location: Bailleul
(50.3375°N, 2.8513°E)
Time: 08:47:24
(UTC+00:00)

Thor Agena Rocket - Pass Details

Date: 16 June 2021
Orbit: 758 x 808 km, 99.0° (Epoch: 03 August)

Event Time Altitude Azimuth Distance (km) Brightness Sun altitude
Rises 23:26:12 0° 19° (NNE) 3,331 8.0 -16.1°
Reaches altitude 10° 23:28:38 10° 24° (NNE) 2,390 7.0 -16.1°
Maximum altitude 23:33:46 50° 100° (E) 1,010 4.0 -16.2°
Enters shadow 23:36:29 26° 163° (SSE) 1,528 4.5 -16.2°
